Cloquet, MN

10:22 AM CST on December 10, 2019 (GMT -0600)
Cloquet Carlton County

Weather History for KCOQ - October, 2019

Change the Weather History Date:

Thursday, October 3, 2019

  Actual Average Record
Temperature  
Mean Temperature 40 °F -  
Max Temperature 44 °F 56 °F 75 °F (2012)
Min Temperature 37 °F 37 °F 26 °F (1996)
Degree Days  
Heating Degree Days 24    
Moisture  
Dew Point 39 °F    
Average Humidity 87    
Maximum Humidity 100    
Minimum Humidity 71    
Precipitation  
Precipitation 0.08 in - - ()
Sea Level Pressure  
Sea Level Pressure 30.15 in    
Wind  
Wind Speed 6 mph ()    
Max Wind Speed 13 mph    
Max Gust Speed 21 mph    
Visibility 7.9 miles    
Events Rain    
Averages and records for this station are not official NWS values.
T = Trace of Precipitation, MM = Missing Value Source: Averaged Metar Reports

Daily Weather History Graph

Daily Weather History Graph

Search for Another Location

Airport or City:

Astronomy

Oct. 03, 2019 Rise Set
Actual Time 7:11 AM CDT 6:46 PM CDT
Civil Twilight 6:40 AM CDT 7:16 PM CDT
Nautical Twilight 6:05 AM CDT 7:51 PM CDT
Astronomical Twilight 5:30 AM CDT 8:26 PM CDT
Moon 1:01 PM CDT (10/3) 10:06 PM CDT (10/3)
Length of Visible Light 12h 35m
Length of Day
11h 35m
Waxing Crescent, 30% of the Moon is Illuminated
Oct 3
Waxing Crescent
Oct 5
First Quarter
Oct 13
Full
Oct 21
Last Quarter
Oct 27
New

Hourly Weather History & Observations

Time (CDT) Temp. Windchill Dew Point Humidity Pressure Visibility Wind Dir Wind Speed Gust Speed Precip Events Conditions
12:15 AM 42.8 °F 38.0 °F 41.0 °F 93% 30.05 in 7.0 mi East 8.1 mph - 0.01 in Rain Rain
12:35 AM 42.8 °F 37.0 °F 41.0 °F 93% 30.04 in 5.0 mi ENE 10.4 mph - 0.01 in Rain Rain
12:55 AM 42.8 °F 38.6 °F 41.0 °F 93% 30.04 in 5.0 mi ENE 6.9 mph - 0.01 in   Drizzle
12:56 AM 42.8 °F 38.6 °F 41.0 °F 93% 30.04 in 5.0 mi ENE 6.9 mph - N/A   Drizzle
1:15 AM 42.8 °F 38.0 °F 41.0 °F 93% 30.03 in 4.0 mi East 8.1 mph - 0.01 in   Drizzle
1:35 AM 42.8 °F 37.5 °F 41.0 °F 93% 30.03 in 4.0 mi East 9.2 mph - 0.01 in Rain Light Rain
1:36 AM 42.8 °F 37.5 °F 41.0 °F 93% 30.03 in 4.0 mi East 9.2 mph - 0.01 in Rain Light Rain
1:55 AM 42.8 °F 39.3 °F 41.0 °F 93% 30.03 in 4.0 mi East 5.8 mph - 0.01 in   Heavy Drizzle
2:15 AM 42.8 °F 39.3 °F 41.0 °F 93% 30.03 in 5.0 mi East 5.8 mph - N/A Rain Light Rain
2:35 AM 42.8 °F 39.3 °F 41.0 °F 93% 30.02 in 7.0 mi ENE 5.8 mph - 0.01 in Rain Light Rain
2:36 AM 42.8 °F 40.1 °F 41.0 °F 93% 30.02 in 7.0 mi East 4.6 mph - 0.01 in Rain Light Rain
2:55 AM 42.8 °F 39.3 °F 41.0 °F 93% 30.02 in 7.0 mi East 5.8 mph - 0.01 in Rain Light Rain
2:56 AM 42.8 °F 39.3 °F 41.0 °F 93% 30.02 in 7.0 mi East 5.8 mph - N/A Rain Light Rain
3:15 AM 42.8 °F 39.3 °F 41.0 °F 93% 30.01 in 7.0 mi East 5.8 mph - 0.01 in Rain Light Rain
3:35 AM 42.8 °F 38.6 °F 41.0 °F 93% 30.01 in 7.0 mi ENE 6.9 mph - 0.01 in Rain Rain
3:55 AM 42.8 °F 38.0 °F 41.0 °F 93% 30.01 in 7.0 mi ENE 8.1 mph - 0.01 in Rain Light Rain
3:56 AM 42.8 °F 37.5 °F 41.0 °F 93% 30.01 in 7.0 mi East 9.2 mph - N/A Rain Light Rain
4:15 AM 42.8 °F 39.3 °F 41.0 °F 93% 30.01 in 7.0 mi East 5.8 mph - 0.01 in Rain Rain
4:16 AM 42.8 °F 39.3 °F 41.0 °F 93% 30.01 in 7.0 mi East 5.8 mph - 0.01 in Rain Rain
4:35 AM 42.8 °F 40.1 °F 41.0 °F 93% 30.01 in 7.0 mi East 4.6 mph - 0.01 in Rain Rain
4:55 AM 42.8 °F 38.6 °F 41.0 °F 93% 30.01 in 5.0 mi East 6.9 mph - 0.01 in Rain Rain
4:56 AM 42.8 °F 38.6 °F 41.0 °F 93% 30.01 in 5.0 mi East 6.9 mph - N/A Rain Light Rain
5:15 AM 42.8 °F 41.1 °F 41.0 °F 93% 30.01 in 7.0 mi East 3.5 mph - N/A   Drizzle
5:35 AM 42.8 °F - 41.0 °F 93% 30.01 in 5.0 mi Calm Calm - N/A Rain Light Rain
5:55 AM 42.8 °F - 41.0 °F 93% 30.01 in 7.0 mi Calm Calm - N/A Rain Light Rain
6:15 AM 42.8 °F - 41.0 °F 93% 30.01 in 7.0 mi Calm Calm - N/A   Light Drizzle
6:35 AM 42.8 °F - 41.0 °F 93% 30.01 in 4.0 mi Calm Calm - N/A Rain Light Rain
6:55 AM 42.8 °F - 41.0 °F 93% 30.01 in 3.0 mi Calm Calm - 0.01 in Rain Rain
7:15 AM 42.8 °F - 42.8 °F 100% 30.01 in 3.0 mi Calm Calm - N/A Rain Rain
7:35 AM 42.8 °F 41.1 °F 42.8 °F 100% 30.02 in 2.5 mi West 3.5 mph - 0.01 in Rain Heavy Rain
7:55 AM 42.8 °F 39.3 °F 42.8 °F 100% 30.03 in 7.0 mi WNW 5.8 mph - N/A Rain Light Rain
7:56 AM 42.8 °F 39.3 °F 42.8 °F 100% 30.03 in 7.0 mi WNW 5.8 mph - N/A Rain Light Rain
8:15 AM 44.6 °F 41.4 °F 42.8 °F 93% 30.03 in 4.0 mi WNW 5.8 mph - N/A Rain Rain
8:35 AM 42.8 °F 38.0 °F 42.8 °F 100% 30.04 in 4.0 mi WNW 8.1 mph - N/A   Drizzle
8:55 AM 42.8 °F 37.5 °F 41.0 °F 93% 30.04 in 3.0 mi West 9.2 mph - N/A Rain Light Rain
8:56 AM 42.8 °F 37.5 °F 41.0 °F 93% 30.04 in 3.0 mi West 9.2 mph - N/A Rain Light Rain
9:15 AM 42.8 °F 38.6 °F 41.0 °F 93% 30.05 in 2.5 mi West 6.9 mph - N/A Rain Light Rain
9:16 AM 42.8 °F 38.0 °F 41.0 °F 93% 30.05 in 3.0 mi West 8.1 mph - N/A Rain Light Rain
9:36 AM 42.8 °F 37.0 °F 41.0 °F 93% 30.06 in 1.5 mi WNW 10.4 mph - 0.01 in Rain Light Rain
9:55 AM 41.0 °F 35.2 °F 39.2 °F 93% 30.07 in 1.5 mi WNW 9.2 mph - 0.01 in   Overcast
10:15 AM 42.8 °F 37.0 °F 39.2 °F 87% 30.08 in 5.0 mi NW 10.4 mph - N/A   Overcast
10:16 AM 42.8 °F 37.0 °F 39.2 °F 87% 30.08 in 5.0 mi NW 10.4 mph - N/A   Overcast
10:35 AM 42.8 °F 37.0 °F 39.2 °F 87% 30.10 in 7.0 mi WNW 10.4 mph - N/A   Overcast
10:36 AM 42.8 °F 37.0 °F 39.2 °F 87% 30.10 in 10.0 mi WNW 10.4 mph - N/A   Overcast
10:55 AM 41.0 °F 34.7 °F 39.2 °F 93% 30.11 in 7.0 mi WNW 10.4 mph - N/A   Overcast
11:15 AM 41.0 °F 35.2 °F 39.2 °F 93% 30.12 in 10.0 mi NW 9.2 mph - N/A   Overcast
11:35 AM 41.0 °F 35.8 °F 39.2 °F 93% 30.12 in 10.0 mi NW 8.1 mph 17.3 mph N/A   Overcast
11:55 AM 41.0 °F 34.3 °F 39.2 °F 93% 30.13 in 10.0 mi WNW 11.5 mph - N/A   Overcast
12:15 PM 42.8 °F 36.2 °F 39.2 °F 87% 30.13 in 10.0 mi NW 12.7 mph 18.4 mph N/A   Overcast
12:35 PM 42.8 °F 37.5 °F 39.2 °F 87% 30.14 in 10.0 mi NW 9.2 mph 17.3 mph N/A   Overcast
12:55 PM 44.6 °F 38.4 °F 37.4 °F 76% 30.14 in 10.0 mi NW 12.7 mph 20.7 mph N/A   Overcast
12:56 PM 44.6 °F 38.8 °F 37.4 °F 76% 30.15 in 10.0 mi NW 11.5 mph 20.7 mph N/A   Overcast
1:15 PM 44.6 °F 38.8 °F 37.4 °F 76% 30.16 in 10.0 mi WNW 11.5 mph 17.3 mph N/A   Overcast
1:16 PM 44.6 °F 39.2 °F 37.4 °F 76% 30.16 in 10.0 mi NW 10.4 mph 17.3 mph N/A   Overcast
1:35 PM 42.8 °F 37.0 °F 37.4 °F 81% 30.16 in 10.0 mi NW 10.4 mph 17.3 mph N/A   Overcast
1:36 PM 42.8 °F 37.0 °F 37.4 °F 81% 30.16 in 10.0 mi NW 10.4 mph - N/A   Overcast
1:55 PM 42.8 °F 36.2 °F 35.6 °F 76% 30.16 in 10.0 mi WNW 12.7 mph 18.4 mph N/A   Overcast
2:15 PM 44.6 °F 39.2 °F 35.6 °F 71% 30.17 in 10.0 mi NW 10.4 mph 16.1 mph N/A   Overcast
2:16 PM 44.6 °F 38.8 °F 35.6 °F 71% 30.17 in 10.0 mi NW 11.5 mph 16.1 mph N/A   Overcast
2:35 PM 42.8 °F 36.6 °F 37.4 °F 81% 30.18 in 10.0 mi NW 11.5 mph 17.3 mph N/A   Overcast
2:36 PM 42.8 °F 37.0 °F 37.4 °F 81% 30.18 in 10.0 mi NW 10.4 mph 17.3 mph N/A   Overcast
2:55 PM 42.8 °F 37.5 °F 37.4 °F 81% 30.19 in 10.0 mi NNW 9.2 mph - N/A   Overcast
3:15 PM 42.8 °F 37.5 °F 35.6 °F 76% 30.20 in 10.0 mi WNW 9.2 mph 16.1 mph N/A   Overcast
3:35 PM 42.8 °F 36.6 °F 35.6 °F 76% 30.21 in 10.0 mi NW 11.5 mph - N/A   Overcast
3:55 PM 42.8 °F 37.5 °F 35.6 °F 76% 30.22 in 10.0 mi NW 9.2 mph - N/A   Overcast
4:15 PM 42.8 °F 36.6 °F 35.6 °F 76% 30.23 in 10.0 mi NW 11.5 mph - N/A   Overcast
4:35 PM 42.8 °F 37.0 °F 35.6 °F 76% 30.24 in 10.0 mi NW 10.4 mph - N/A   Overcast
4:55 PM 42.8 °F 37.5 °F 35.6 °F 76% 30.24 in 10.0 mi NW 9.2 mph 16.1 mph N/A   Overcast
4:56 PM 42.8 °F 37.5 °F 35.6 °F 76% 30.25 in 10.0 mi NW 9.2 mph 16.1 mph N/A   Overcast
5:15 PM 42.8 °F 39.3 °F 35.6 °F 76% 30.25 in 10.0 mi NW 5.8 mph - N/A   Overcast
5:35 PM 42.8 °F 39.3 °F 35.6 °F 76% 30.26 in 10.0 mi NW 5.8 mph - N/A   Overcast
5:36 PM 42.8 °F 39.3 °F 35.6 °F 76% 30.26 in 10.0 mi WNW 5.8 mph - N/A   Overcast
5:55 PM 42.8 °F 39.3 °F 35.6 °F 76% 30.26 in 10.0 mi WNW 5.8 mph - N/A   Overcast
6:15 PM 42.8 °F 37.5 °F 35.6 °F 76% 30.27 in 10.0 mi WNW 9.2 mph - N/A   Mostly Cloudy
6:16 PM 42.8 °F 37.5 °F 35.6 °F 76% 30.27 in 10.0 mi WNW 9.2 mph - N/A   Mostly Cloudy
6:35 PM 42.8 °F 40.1 °F 35.6 °F 76% 30.28 in 10.0 mi WNW 4.6 mph - N/A   Mostly Cloudy
6:55 PM 42.8 °F 41.1 °F 37.4 °F 81% 30.29 in 10.0 mi West 3.5 mph - N/A   Overcast
6:56 PM 42.8 °F 40.1 °F 37.4 °F 81% 30.29 in 10.0 mi West 4.6 mph - N/A   Overcast
7:15 PM 42.8 °F 41.1 °F 37.4 °F 81% 30.30 in 10.0 mi West 3.5 mph - N/A   Overcast
7:35 PM 41.0 °F - 37.4 °F 87% 30.30 in 10.0 mi Calm Calm - N/A   Mostly Cloudy
7:36 PM 41.0 °F - 37.4 °F 87% 30.30 in 10.0 mi Calm Calm - N/A   Mostly Cloudy
7:55 PM 39.2 °F - 35.6 °F 87% 30.31 in 10.0 mi Calm Calm - N/A   Mostly Cloudy
7:56 PM 39.2 °F - 35.6 °F 87% 30.31 in 10.0 mi Calm Calm - N/A   Mostly Cloudy
8:15 PM 39.2 °F - 35.6 °F 87% 30.32 in 10.0 mi Calm Calm - N/A   Scattered Clouds
8:16 PM 39.2 °F - 35.6 °F 87% 30.32 in 10.0 mi Calm Calm - N/A   Scattered Clouds
8:35 PM 37.4 °F - 35.6 °F 93% 30.32 in 10.0 mi Calm Calm - N/A   Mostly Cloudy
8:55 PM 37.4 °F - 35.6 °F 93% 30.32 in 10.0 mi Calm Calm - N/A   Overcast
9:15 PM 39.2 °F - 37.4 °F 93% 30.33 in 10.0 mi Calm Calm - N/A   Overcast
9:35 PM 39.2 °F 37.0 °F 37.4 °F 93% 30.33 in 10.0 mi NW 3.5 mph - N/A   Overcast
9:55 PM 39.2 °F 37.0 °F 37.4 °F 93% 30.34 in 10.0 mi NW 3.5 mph - N/A   Overcast
10:15 PM 41.0 °F 38.0 °F 37.4 °F 87% 30.34 in 10.0 mi WNW 4.6 mph - N/A   Overcast
10:35 PM 41.0 °F 37.1 °F 37.4 °F 87% 30.34 in 10.0 mi NW 5.8 mph - N/A   Overcast
10:36 PM 41.0 °F 37.1 °F 37.4 °F 87% 30.34 in 10.0 mi NW 5.8 mph - N/A   Overcast
10:55 PM 39.2 °F 37.0 °F 37.4 °F 93% 30.36 in 10.0 mi WNW 3.5 mph - N/A   Mostly Cloudy
11:15 PM 41.0 °F 39.0 °F 37.4 °F 87% 30.36 in 10.0 mi NW 3.5 mph - N/A   Overcast
11:16 PM 41.0 °F 39.0 °F 37.4 °F 87% 30.37 in 10.0 mi WNW 3.5 mph - N/A   Overcast
11:35 PM 41.0 °F - 37.4 °F 87% 30.37 in 10.0 mi Calm Calm - N/A   Overcast
11:55 PM 41.0 °F - 37.4 °F 87% 30.36 in 10.0 mi Calm Calm - N/A   Overcast
11:56 PM 41.0 °F - 37.4 °F 87% 30.36 in 10.0 mi Calm Calm - N/A   Overcast